Airfield Data

Name Airfield Ganderkesee
ICAO Code EDWQ
Coordinates 53.02.15 N / 08.30.22 E
Direction 26 (262°) / 08 (082°)
Height above Ground 96 ft
Measurement 835 m x 22 m
Surface Runway: ASPH
Taxi Way: ASPH
Frequencies Ganderkesee Info / Bearing:  118.625 MHz
(at least 5 min. before approach)Bremen Information: 119.825 MHz
Bremen Approach: 125.650 MHzIn airfield traffic to be on call at all times.
Watch out for Gliders / Ultralights / Parachutes – especially on Saturday / Sunday / Holiday.
Tower Tel +49 4222 45 31
METAR

(EDDW)

EDDW 240920Z 19009KT 3500 -DZ BR BKN005 OVC007 12/12 Q1020 TEMPO 2500 BKN003 (No limit or warranty)
TAF

(EDDW)

TAF EDDW 240500Z 2406/2506 17006KT 2500 -DZ BR BKN004 TEMPO 2406/2417 5000 BKN008 PROB30 TEMPO 2408/2417 BKN010 BECMG 2410/2412 23008KT TEMPO 2417/2503 1400 DZ PROB30 TEMPO 2418/2506 4000 (No limit or warranty)
Hours of Operation Today: 09:00 – 18:41 o’clock (automatically calculated time – without limit or warranty)

Summer:
UTC+2 9 A.M. until Sunset + 30 min. (max. 8 P.M.)

Winter:
UTC+1 9 A.M. until Sunset + 30 min. (max. 8 P.M.)

Other times PPR.
1 P.M. – 3 P.M. Start / Land only for / of cross-country flights.

Flight Operation Materials see Prices / Fees
Visual Flight see Visual Flight
Hangars see Hangar Places
Operating Modes VFR and NVFR at night
GAFOR 07
Aircrafts Airplanes up to 5.700 kg MPW
Motor gliders
Gliders (Towing)
Ultralight Planes
Balloons PPR
Airplanes starting at 5.700 kg PPR
Parachutes PPR